This demonstration page uses our WeatherBlox Daily Observations layout. Learn more.

Left ArrowRight Arrow

41.86663, -103.66717

Hourly Observations for April 3, 2018

Temp ( °F °C ) Dew Point ( °F °C ) Humidity (%) Winds ( mph kmh ) Pressure ( in mb ) Visibility ( mi km ) Precip ( " mm )
12:01 am 00:01 Mostly Cloudy 27 -2.8 25 -3.9 92 92 NNE 8 13 29.85 1011 10 16 N/A
12:10 am 00:10 Partly Cloudy 27 -2.8 25 -3.9 92 92 N 9 15 29.85 1011 10 16 N/A
12:38 am 00:38 Cloudy 28 -2 25 -4 86 86 NNW 17 28 29.85 1011 10 16 N/A
12:53 am 00:53 Cloudy 28 -2.2 24 -4.4 85 85 N 17 28 29.75 1008 10 16 N/A
1:03 am 01:03 Cloudy 28 -2.2 24 -4.4 85 85 N 15 24 29.91 1013 10 16 N/A
1:42 am 01:42 Cloudy 28 -2 25 -4 86 86 NW 15 24 29.97 1015 10 16 N/A
1:51 am 01:51 Cloudy 28 -2 23 -5 80 80 WNW 15 24 29.97 1015 10 16 N/A
1:53 am 01:53 Cloudy 28 -2.2 23 -5 81 81 WNW 15 24 29.81 1010 10 16 N/A
2:53 am 02:53 Cloudy 24 -4.4 17 -8.3 75 75 NW 26 43 29.89 1012 10 16 N/A
3:10 am 03:10 Partly Cloudy 21 -6 16 -9 80 80 NW 18 30 30.15 1021 10 16 N/A
3:53 am 03:53 Clear 20 -6.7 14 -10 78 78 WNW 20 31 29.93 1014 10 16 N/A
4:53 am 04:53 Clear 20 -6.7 12 -11.1 71 71 NW 22 35 30.02 1017 10 16 N/A
5:53 am 05:53 Clear 19 -7.2 11 -11.7 71 71 NW 23 37 30.07 1018 10 16 N/A
6:53 am 06:53 Sunny 19 -7.2 11 -11.7 71 71 WNW 18 30 30.11 1020 10 16 N/A
7:53 am 07:53 Sunny 21 -6.1 12 -11.1 68 68 NW 21 33 30.17 1022 10 16 N/A
8:53 am 08:53 Sunny 24 -4.4 14 -10 65 65 NW 13 20 30.19 1022 10 16 N/A
9:53 am 09:53 Sunny 28 -2.2 17 -8.3 63 63 NW 16 26 30.20 1023 10 16 N/A
10:53 am 10:53 Sunny 32 undefined 18 -7.8 56 56 NW 17 28 30.20 1023 10 16 N/A
11:53 am 11:53 Sunny 35 1.7 20 -6.7 54 54 NW 14 22 30.17 1022 10 16 N/A
12:53 pm 12:53 Mostly Sunny 39 3.9 18 -7.8 43 43 W 18 30 30.14 1021 10 16 N/A
1:53 pm 13:53 Mostly Sunny 43 6.1 12 -11.1 28 28 NW 28 44 30.10 1019 10 16 N/A
2:53 pm 14:53 Mostly Sunny 45 7.2 10 -12.2 24 24 WNW 26 43 30.09 1019 10 16 N/A
3:53 pm 15:53 Sunny 45 7.2 9 -12.8 23 23 NW 29 46 30.10 1019 10 16 N/A
4:53 pm 16:53 Sunny 44 6.7 11 -11.7 26 26 NNW 28 44 30.11 1020 10 16 N/A
5:53 pm 17:53 Sunny 43 6.1 13 -10.6 29 29 N 16 26 30.12 1020 10 16 N/A
6:53 pm 18:53 Sunny 39 3.9 15 -9.4 38 38 NNE 12 19 30.15 1021 10 16 N/A
7:53 pm 19:53 Clear 31 -0.6 18 -7.8 59 59 NE 8 13 30.19 1022 10 16 N/A
8:53 pm 20:53 Clear 28 -2.2 19 -7.2 69 69 ENE 8 13 30.21 1023 10 16 N/A
9:53 pm 21:53 Clear 25 -3.9 19 -7.2 78 78 E 6 9 30.23 1024 10 16 N/A
10:53 pm 22:53 Clear 25 -3.9 19 -7.2 78 78 ESE 6 9 30.23 1024 10 16 N/A
11:53 pm 23:53 Clear 21 -6.1 17 -8.3 85 85 E 6 9 30.22 1023 10 16 N/A

Powered by AerisWeather